Find Connecta T4.4

NORAD ID: 60524 Int'l Des: 2024-149 Owner: PLNSST Country: TR Constellation: plan-s operational
LEOCIRCULARRETROGRADESSO

当前视图

正在加载3D地球...

关于 Connecta T4.4

正在加载描述...

即将过境

Passes for default location (London). Set your location on the main map for personalized predictions.

高度历史

Loading altitude history...

两行轨道根数

1 60524U 24149BJ 26151.46308882 .00028740 00000-0 68603-3 0 9998
2 60524 97.3801 235.6429 0004565 3.4966 356.6311 15.41485777 99750
Epoch: May 31, 2026 • Age: 7 hours

当前状态

高度 468.1 km
速度 7.63 km/s
星下点 -73.95°S, 94.63°E
发射日期 Aug 16, 2024
运行时间 1.7 years
类型 other

技术详情

分类 Payload
质量 10.00 kg
干质量 10.00 kg
总质量 10.00 kg
长度 0.30 m
直径 0.20 m
跨度 0.30 m
形状 Box
制造商 PLNSST
平台类型 Cubesat 6U
阶段状态 In Orbit
所有者/国家 PLNSST/TR

Most Searched